FW6187 Weather Reports


time (UTC)temp
C
wind
direction
speed
KPH
gust
KPH
rain 1hr
cm
rain 24hr
cm
rain mn
cm
humidity
%
barometer
mb
20260509201559 17 182 12.9 20.9 0.00 0.56 0.36 73 1009.1
20260509194551 17 193 8.0 22.5 0.00 0.58 0.36 73 1009.4
20260509193053 16 222 6.4 25.7 0.00 0.58 0.36 77 1009.6
20260509191546 16 167 12.9 27.4 0.00 0.58 0.36 77 1009.5
20260509190043 15 189 9.7 25.7 0.00 0.58 0.36 80 1009.8
20260509184545 15 183 11.3 24.1 0.00 0.61 0.36 79 1009.9
20260509183038 15 189 14.5 24.1 0.00 0.61 0.36 81 1010.1
20260509181535 13 187 8.0 16.1 0.00 0.61 0.36 82 1010.1
20260509180033 13 340 4.8 12.9 0.00 0.61 0.36 86 1010.1
20260509174530 13 205 0.0 3.2 0.00 0.61 0.36 88 1010.3
20260509173031 13 201 0.0 9.7 0.00 0.61 0.36 87 1010.2
20260509171536 13 230 1.6 14.5 0.00 0.61 0.36 88 1010.1
20260509170029 13 190 4.8 16.1 0.00 0.61 0.36 91 1010.2
20260509164527 12 215 6.4 19.3 0.03 0.61 0.36 91 1010.2
20260509163048 11 199 8.0 16.1 0.03 0.61 0.36 91 1010.2
20260509161530 11 186 11.3 17.7 0.05 0.61 0.36 91 1010.2
20260509160023 11 208 9.7 17.7 0.13 0.61 0.36 91 1010.2
20260509154531 11 224 8.0 24.1 0.10 0.58 0.33 91 1010.1
20260509153024 10 197 6.4 16.1 0.10 0.58 0.33 91 1010.0
20260509151516 10 195 9.7 19.3 0.08 0.56 0.30 91 1010.0
20260509150015 10 166 9.7 16.1 0.00 0.48 0.23 91 1010.0
20260509144517 10 186 8.0 16.1 0.03 0.48 0.23 91 1010.1
20260509143014 10 189 9.7 19.3 0.03 0.48 0.23 91 1010.2
20260509141521 10 193 8.0 19.3 0.08 0.48 0.23 91 1010.2
20260509140007 10 176 11.3 20.9 0.13 0.48 0.23 91 1010.2
20260509134506 10 202 9.7 16.1 0.10 0.46 0.20 91 1010.3
20260509133005 10 173 9.7 19.3 0.08 0.43 0.18 91 1010.3
20260509131504 10 202 4.8 24.1 0.05 0.41 0.15 91 1010.4
20260509130003 10 186 6.4 16.1 0.00 0.36 0.10 91 1010.5
20260509124603 10 194 8.0 14.5 0.03 0.36 0.10 91 1010.4
20260509123103 10 192 4.8 16.1 0.03 0.36 0.10 91 1010.4
20260509121600 9 179 3.2 8.0 0.03 0.36 0.10 91 1010.4
20260509120052 9 180 3.2 11.3 0.03 0.36 0.10 91 1010.7
20260509114600 8 177 4.8 8.0 0.00 0.33 0.08 91 1010.5
20260509113046 8 123 1.6 4.8 0.00 0.33 0.08 91 1010.5
20260509111543 8 99 1.6 4.8 0.00 0.33 0.08 91 1010.4
20260509110043 8 99 0.0 3.2 0.00 0.33 0.08 91 1010.4
20260509104543 8 99 0.0 3.2 0.00 0.33 0.08 91 1010.4
20260509103041 8 99 3.2 4.8 0.03 0.33 0.08 91 1010.4
20260509101541 8 99 4.8 9.7 0.03 0.33 0.08 91 1010.5
20260509100039 8 121 0.0 4.8 0.05 0.33 0.08 91 1010.4
20260509094546 8 70 1.6 4.8 0.05 0.33 0.08 91 1010.6
20260509093036 8 68 0.0 3.2 0.03 0.30 0.05 90 1010.9
20260509091535 8 68 0.0 0.0 0.03 0.30 0.05 91 1011.1
20260509090054 8 68 0.0 0.0 0.00 0.28 0.03 90 1011.1
20260509084540 8 68 0.0 1.6 0.00 0.28 0.03 90 1011.1
20260509083045 8 69 0.0 0.0 0.00 0.28 0.03 90 1010.9
20260509081539 8 69 0.0 3.2 0.00 0.28 0.03 90 1011.0
20260509080045 8 69 0.0 1.6 0.00 0.28 0.03 90 1011.0
20260509074536 8 69 0.0 0.0 0.00 0.28 0.03 90 1010.9
20260509073030 8 69 0.0 0.0 0.00 0.28 0.03 90 1011.2
20260509071530 8 69 0.0 0.0 0.00 0.28 0.03 90 1011.2
20260509070035 7 69 0.0 6.4 0.00 0.28 0.03 90 1011.1
20260509064526 8 68 1.6 6.4 0.00 0.28 0.03 90 1011.3
20260509063023 8 66 4.8 6.4 0.00 0.28 0.03 89 1011.4
20260509061522 8 66 3.2 4.8 0.00 0.28 0.03 89 1011.8
20260509060021 8 63 1.6 4.8 0.00 0.28 0.03 89 1011.9
20260509054520 8 63 3.2 4.8 0.00 0.28 0.03 89 1012.0
20260509053027 8 64 3.2 4.8 0.00 0.28 0.03 89 1012.3
20260509051516 8 64 4.8 6.4 0.00 0.28 0.03 89 1012.4
20260509050034 8 66 3.2 9.7 0.03 0.28 0.03 89 1012.6
20260509044512 8 91 3.2 4.8 0.03 0.28 0.03 89 1012.9
20260509043009 8 91 1.6 4.8 0.03 0.28 0.03 89 1013.2
20260509041505 8 91 1.6 6.4 0.03 0.28 0.03 89 1013.3
20260509034607 8 175 0.0 0.0 0.03 0.25 0.25 89 1013.7
20260509033110 8 176 0.0 0.0 0.05 0.25 0.25 88 1013.9
20260509031559 8 185 0.0 0.0 0.08 0.25 0.25 88 1014.1
20260509030059 8 185 0.0 0.0 0.05 0.23 0.23 88 1014.5
20260509024605 8 182 0.0 0.0 0.08 0.23 0.23 88 1014.3
20260509023057 8 182 0.0 0.0 0.05 0.20 0.20 88 1014.4
20260509021557 8 182 0.0 0.0 0.03 0.18 0.18 88 1014.0
20260509020057 8 182 0.0 0.0 0.03 0.18 0.18 88 1013.7
20260509014556 8 182 0.0 0.0 0.00 0.15 0.15 88 1013.7
20260509013108 8 182 0.0 3.2 0.00 0.15 0.15 87 1013.5
20260509011603 8 182 1.6 4.8 0.00 0.15 0.15 87 1013.4
20260509010057 8 182 1.6 4.8 0.00 0.15 0.15 87 1013.1
20260509004600 9 182 0.0 0.0 0.00 0.15 0.15 87 1013.1
20260509003054 9 182 0.0 0.0 0.00 0.15 0.15 86 1013.0
20260509001554 9 182 0.0 0.0 0.00 0.15 0.15 86 1012.9
20260509000051 9 182 0.0 3.2 0.00 0.15 0.15 86 1012.6
20260508234551 10 182 0.0 6.4 0.00 0.15 0.15 86 1012.5
20260508233049 10 182 1.6 3.2 0.00 0.15 0.15 86 1012.6
20260508231553 10 182 0.0 1.6 0.00 0.15 0.15 85 1013.0
20260508230049 10 182 1.6 4.8 0.00 0.15 0.15 85 1013.0
20260508224605 10 182 3.2 8.0 0.05 0.15 0.15 85 1013.0
20260508223045 10 245 0.0 4.8 0.08 0.15 0.15 85 1013.1
20260508221555 10 250 1.6 16.1 0.10 0.15 0.15 84 1012.9
20260508220044 10 95 1.6 12.9 0.10 0.15 0.15 84 1013.2
20260508214548 10 220 0.0 0.0 0.05 0.10 0.10 84 1013.3
20260508213043 11 220 0.0 3.2 0.03 0.08 0.08 83 1013.3
20260508211548 11 208 1.6 6.4 0.00 0.05 0.05 80 1013.2
20260508210043 11 205 3.2 12.9 0.00 0.05 0.05 78 1012.9
20260508204543 11 241 4.8 14.5 0.00 0.05 0.05 77 1012.9
20260508203041 11 205 4.8 14.5 0.03 0.05 0.05 78 1013.1